Location: Coupvray
(48.8929°N, 2.7967°E)
Time: 00:02:35
(UTC+00:00)

Cosmos 724 - Pass Details

Date: 26 October 2020
Orbit: 851 x 943 km, 65.6° (Epoch: 28 November)

Event Time Altitude Azimuth Distance (km) Brightness Sun altitude
Exits shadow 01:35:40 14° 24° (NNE) 2,318 6.9 -45.7°
Drops below altitude 10° 01:36:34 10° 29° (NNE) 2,603 7.3 -45.6°
Sets 01:39:23 0° 39° (NE) 3,562 8.2 -45.2°
